This is the latest recevied weather packets stored in our database for station/object EA3KZ-1. If no packets are shown the sender has not sent any weather packets the latest 10 day(s).
| Time | Temp. | Humidity | Pressure | Rain* | Wind** | Luminosity | Snow |
|---|---|---|---|---|---|---|---|
| 1787842539 | 31.67° C | 53% | 1008.2 hPa | 0 mm | - | - | - |
| 1787841936 | 31.67° C | 52% | 1008.3 hPa | 0 mm | - | - | - |
| 1787841333 | 31.67° C | 51% | 1008.1 hPa | 0 mm | - | - | - |
| 1787840731 | 32.78° C | 34% | 1007.9 hPa | 0 mm | - | - | - |
| 1787840129 | 33.33° C | 37% | 1008 hPa | 0 mm | - | - | - |
| 1787839526 | 33.33° C | 29% | 1008.1 hPa | 0 mm | - | - | - |
| 1787838923 | 33.89° C | 31% | 1008.1 hPa | 0 mm | - | - | - |
| 1787838321 | 33.89° C | 28% | 1008 hPa | 0 mm | - | - | - |
| 1787837718 | 33.89° C | 39% | 1008 hPa | 0 mm | - | - | - |
| 1787837116 | 33.33° C | 44% | 1007.9 hPa | 0 mm | - | - | - |
| 1787836573 | 33.33° C | 46% | 1007.9 hPa | 0 mm | - | - | - |
| 1787835971 | 32.78° C | 49% | 1008.2 hPa | 0 mm | - | - | - |
| 1787835368 | 32.78° C | 54% | 1008.2 hPa | 0 mm | - | - | - |
| 1787834765 | 33.33° C | 54% | 1008.3 hPa | 0 mm | - | - | - |
| 1787834163 | 33.33° C | 53% | 1008.1 hPa | 0 mm | - | - | - |
| 1787833560 | 32.22° C | 53% | 1008.1 hPa | 0 mm | - | - | - |
| 1787832958 | 32.78° C | 55% | 1008 hPa | 0 mm | - | - | - |
| 1787832355 | 32.78° C | 53% | 1008.1 hPa | 0 mm | - | - | - |
| 1787831753 | 32.78° C | 52% | 1008.2 hPa | 0 mm | - | - | - |
| 1787831150 | 32.78° C | 52% | 1008.2 hPa | 0 mm | - | - | - |
| 1787830547 | 32.22° C | 52% | 1008.1 hPa | 0 mm | - | - | - |
| 1787829945 | 31.67° C | 53% | 1008.3 hPa | 0 mm | - | - | - |
| 1787829342 | 32.22° C | 52% | 1008.4 hPa | 0 mm | - | - | - |
| 1787828739 | 31.11° C | 55% | 1008.4 hPa | 0 mm | - | - | - |
| 1787828137 | 30.56° C | 59% | 1008.5 hPa | 0 mm | - | - | - |
* Rain latest hour (hover to see other rain measurements)
** Current wind speed in m/s (hover to see current wind gust speed)